| time (UTC) | temp F | wind direction | speed MPH | gust MPH | rain 1hr in | rain 24hr in | rain mn in | humidity % | barometer mb |
| 20260507150320 | 72 | 351 | 0.0 | 5.0 | 0.00 | 0.00 | 0.00 | 55 | |
| 20260507145720 | 71 | 322 | 0.0 | 0.0 | 0.00 | 0.00 | 0.00 | 55 | |
| 20260507145120 | 71 | 322 | 0.0 | 2.0 | 0.00 | 0.00 | 0.00 | 55 | |
| 20260507144520 | 71 | 322 | 0.0 | 0.0 | 0.00 | 0.00 | 0.00 | 55 | |
| 20260507143920 | 71 | 322 | 0.0 | 4.0 | 0.00 | 0.00 | 0.00 | 54 | |
| 20260507143320 | 71 | 293 | 0.0 | 0.0 | 0.00 | 0.00 | 0.00 | 54 | |
| 20260507142720 | 71 | 293 | 0.0 | 0.0 | 0.00 | 0.00 | 0.00 | 53 | |
| 20260507142120 | 71 | 293 | 0.0 | 0.0 | 0.00 | 0.00 | 0.00 | 52 | |
| 20260507141520 | 72 | 293 | 0.0 | 5.0 | 0.00 | 0.00 | 0.00 | 51 | |
| 20260507140920 | 72 | 306 | 0.0 | 4.0 | 0.00 | 0.00 | 0.00 | 50 | |
| 20260507140320 | 73 | 307 | 0.0 | 0.0 | 0.00 | 0.00 | 0.00 | 49 | |
| 20260507135720 | 73 | 288 | 3.0 | 5.0 | 0.00 | 0.00 | 0.00 | 49 | |
| 20260507135120 | 73 | 348 | 0.0 | 5.0 | 0.00 | 0.00 | 0.00 | 48 | |
| 20260507134922 | 73 | 11 | 0.0 | 0.0 | 0.00 | 0.00 | 0.00 | 49 | |
| 20260507134520 | 73 | 11 | 0.0 | 0.0 | 0.00 | 0.00 | 0.00 | 49 | |
| 20260507133920 | 74 | 11 | 0.0 | 0.0 | 0.00 | 0.00 | 0.00 | 48 | |
| 20260507133320 | 74 | 11 | 0.0 | 5.0 | 0.00 | 0.00 | 0.00 | 46 | |
| 20260507132922 | 75 | 351 | 0.0 | 5.0 | 0.00 | 0.00 | 0.00 | 46 | |
| 20260507132720 | 75 | 78 | 0.0 | 0.0 | 0.00 | 0.00 | 0.00 | 46 | |
| 20260507132120 | 74 | 78 | 0.0 | 4.0 | 0.00 | 0.00 | 0.00 | 48 | |
| 20260507131520 | 73 | 14 | 0.0 | 6.0 | 0.00 | 0.00 | 0.00 | 50 | |
| 20260507130920 | 72 | 11 | 0.0 | 0.0 | 0.00 | 0.00 | 0.00 | 51 | |
| 20260507130320 | 72 | 312 | 3.0 | 5.0 | 0.00 | 0.00 | 0.00 | 52 | |
| 20260507125720 | 72 | 286 | 4.0 | 5.0 | 0.00 | 0.00 | 0.00 | 52 | |
| 20260507125120 | 72 | 351 | 0.0 | 6.0 | 0.00 | 0.00 | 0.00 | 51 | |
| 20260507124922 | 72 | 309 | 5.0 | 5.0 | 0.00 | 0.00 | 0.00 | 51 | |
| 20260507124520 | 72 | 354 | 0.0 | 5.0 | 0.00 | 0.00 | 0.00 | 51 | |
| 20260507123920 | 72 | 151 | 0.0 | 4.0 | 0.00 | 0.00 | 0.00 | 52 | |
| 20260507123320 | 72 | 45 | 0.0 | 3.0 | 0.00 | 0.00 | 0.00 | 52 | |
| 20260507122720 | 72 | 26 | 0.0 | 2.0 | 0.00 | 0.00 | 0.00 | 49 | |
| 20260507122120 | 72 | 26 | 0.0 | 2.0 | 0.00 | 0.00 | 0.00 | 46 | |
| 20260507121521 | 72 | 26 | 0.0 | 5.0 | 0.00 | 0.00 | 0.00 | 43 | |
| 20260507120921 | 72 | 355 | 0.0 | 4.0 | 0.00 | 0.00 | 0.00 | 46 | |
| 20260507120320 | 71 | 9 | 0.0 | 0.0 | 0.00 | 0.00 | 0.00 | 49 | |
| 20260507115721 | 71 | 9 | 0.0 | 0.0 | 0.00 | 0.00 | 0.00 | 52 | |
| 20260507115121 | 71 | 9 | 0.0 | 0.0 | 0.00 | 0.00 | 0.00 | 52 | |
| 20260507114922 | 71 | 9 | 0.0 | 0.0 | 0.00 | 0.00 | 0.00 | 51 | |
| 20260507114521 | 71 | 9 | 0.0 | 3.0 | 0.00 | 0.00 | 0.00 | 51 | |
| 20260507113921 | 71 | 9 | 0.0 | 5.0 | 0.00 | 0.00 | 0.00 | 51 | |
| 20260507113321 | 71 | 347 | 0.0 | 0.0 | 0.00 | 0.00 | 0.00 | 53 | |
| 20260507112922 | 71 | 347 | 0.0 | 0.0 | 0.00 | 0.00 | 0.00 | 52 | |
| 20260507112721 | 71 | 347 | 0.0 | 0.0 | 0.00 | 0.00 | 0.00 | 52 | |
| 20260507112121 | 71 | 347 | 0.0 | 0.0 | 0.00 | 0.00 | 0.00 | 52 | |
| 20260507111521 | 71 | 347 | 0.0 | 3.0 | 0.00 | 0.00 | 0.00 | 52 | |
| 20260507110921 | 71 | 29 | 4.0 | 4.0 | 0.00 | 0.00 | 0.00 | 51 | |
| 20260507110321 | 71 | 26 | 0.0 | 3.0 | 0.00 | 0.00 | 0.00 | 49 | |
| 20260507105721 | 71 | 14 | 0.0 | 4.0 | 0.00 | 0.00 | 0.00 | 47 | |
| 20260507105121 | 71 | 288 | 0.0 | 0.0 | 0.00 | 0.00 | 0.00 | 51 | |
| 20260507104922 | 71 | 288 | 0.0 | 0.0 | 0.00 | 0.00 | 0.00 | 51 | |
| 20260507104521 | 71 | 288 | 0.0 | 0.0 | 0.00 | 0.00 | 0.00 | 52 | |
| 20260507103921 | 70 | 288 | 0.0 | 0.0 | 0.00 | 0.00 | 0.00 | 51 | |
| 20260507103321 | 71 | 288 | 0.0 | 0.0 | 0.00 | 0.00 | 0.00 | 52 | |
| 20260507102922 | 70 | 288 | 0.0 | 0.0 | 0.00 | 0.00 | 0.00 | 51 | |
| 20260507102721 | 70 | 288 | 0.0 | 0.0 | 0.00 | 0.00 | 0.00 | 51 | |
| 20260507102121 | 70 | 288 | 0.0 | 0.0 | 0.00 | 0.00 | 0.00 | 51 | |
| 20260507101521 | 70 | 288 | 0.0 | 0.0 | 0.00 | 0.00 | 0.00 | 51 | |
| 20260507100921 | 70 | 288 | 0.0 | 0.0 | 0.00 | 0.00 | 0.00 | 49 | |
| 20260507100321 | 70 | 288 | 0.0 | 0.0 | 0.00 | 0.00 | 0.00 | 49 | |
| 20260507095721 | 70 | 288 | 0.0 | 0.0 | 0.00 | 0.00 | 0.00 | 50 | |
| 20260507095121 | 70 | 358 | 0.0 | 5.0 | 0.00 | 0.00 | 0.00 | 51 | |
| 20260507094922 | 70 | 358 | 0.0 | 5.0 | 0.00 | 0.00 | 0.00 | 49 | |
| 20260507094521 | 70 | 358 | 2.0 | 3.0 | 0.00 | 0.00 | 0.00 | 49 | |
| 20260507093921 | 70 | 309 | 0.0 | 4.0 | 0.00 | 0.00 | 0.00 | 50 | |
| 20260507093321 | 70 | 309 | 0.0 | 3.0 | 0.00 | 0.00 | 0.00 | 51 | |
| 20260507092721 | 70 | 358 | 0.0 | 6.0 | 0.00 | 0.00 | 0.00 | 51 | |
| 20260507092121 | 70 | 331 | 0.0 | 0.0 | 0.00 | 0.00 | 0.00 | 51 | |
| 20260507091521 | 69 | 331 | 0.0 | 5.0 | 0.00 | 0.00 | 0.00 | 52 | |
| 20260507090921 | 69 | 2 | 0.0 | 0.0 | 0.00 | 0.00 | 0.00 | 51 | |
| 20260507090321 | 69 | 2 | 0.0 | 0.0 | 0.00 | 0.00 | 0.00 | 50 | |
| 20260507085721 | 68 | 2 | 0.0 | 0.0 | 0.00 | 0.00 | 0.00 | 49 | |
| 20260507085121 | 68 | 2 | 0.0 | 0.0 | 0.00 | 0.00 | 0.00 | 49 | |
| 20260507084922 | 68 | 2 | 0.0 | 0.0 | 0.00 | 0.00 | 0.00 | 48 | |
| 20260507084521 | 69 | 2 | 0.0 | 0.0 | 0.00 | 0.00 | 0.00 | 49 | |
| 20260507083921 | 69 | 2 | 0.0 | 0.0 | 0.00 | 0.00 | 0.00 | 49 | |
| 20260507083321 | 69 | 2 | 0.0 | 0.0 | 0.00 | 0.00 | 0.00 | 48 | |
| 20260507082922 | 69 | 2 | 0.0 | 0.0 | 0.00 | 0.00 | 0.00 | 47 | |
| 20260507082721 | 69 | 2 | 0.0 | 5.0 | 0.00 | 0.00 | 0.00 | 47 | |
| 20260507082121 | 69 | 344 | 0.0 | 0.0 | 0.00 | 0.00 | 0.00 | 49 | |
| 20260507081521 | 69 | 344 | 0.0 | 7.0 | 0.00 | 0.00 | 0.00 | 49 | |
| 20260507080921 | 69 | 305 | 0.0 | 3.0 | 0.00 | 0.00 | 0.00 | 47 | |
| 20260507080321 | 68 | 299 | 0.0 | 0.0 | 0.00 | 0.00 | 0.00 | 48 | |
| 20260507075721 | 68 | 299 | 0.0 | 0.0 | 0.00 | 0.00 | 0.00 | 49 | |
| 20260507075121 | 67 | 299 | 0.0 | 4.0 | 0.00 | 0.00 | 0.00 | 52 | |
| 20260507074923 | 67 | 315 | 3.0 | 4.0 | 0.00 | 0.00 | 0.00 | 51 | |
| 20260507074521 | 67 | 354 | 0.0 | 5.0 | 0.00 | 0.00 | 0.00 | 50 | |
| 20260507073921 | 67 | 49 | 0.0 | 0.0 | 0.00 | 0.00 | 0.00 | 41 | |
| 20260507073321 | 67 | 49 | 0.0 | 5.0 | 0.00 | 0.00 | 0.00 | 44 | |
| 20260507072922 | 67 | 305 | 0.0 | 4.0 | 0.00 | 0.00 | 0.00 | 47 | |
| 20260507072721 | 67 | 305 | 0.0 | 4.0 | 0.00 | 0.00 | 0.00 | 48 | |
| 20260507072121 | 67 | 288 | 0.0 | 0.0 | 0.00 | 0.00 | 0.00 | 50 | |
| 20260507071521 | 67 | 288 | 0.0 | 0.0 | 0.00 | 0.00 | 0.00 | 50 | |
| 20260507070921 | 67 | 288 | 0.0 | 4.0 | 0.00 | 0.00 | 0.00 | 51 | |
| 20260507070321 | 66 | 267 | 4.0 | 5.0 | 0.00 | 0.00 | 0.00 | 48 | |
| 20260507065721 | 65 | 139 | 0.0 | 1.0 | 0.00 | 0.00 | 0.00 | 44 | |
| 20260507065121 | 64 | 163 | 0.0 | 0.0 | 0.00 | 0.00 | 0.00 | 49 | |
| 20260507064922 | 64 | 163 | 0.0 | 0.0 | 0.00 | 0.00 | 0.00 | 54 | |
| 20260507064521 | 64 | 163 | 0.0 | 0.0 | 0.00 | 0.00 | 0.00 | 52 | |
| 20260507063921 | 64 | 163 | 0.0 | 0.0 | 0.00 | 0.00 | 0.00 | 53 | |
| 20260507063321 | 64 | 163 | 0.0 | 0.0 | 0.00 | 0.00 | 0.00 | 53 | |
| 20260507062922 | 64 | 163 | 0.0 | 0.0 | 0.00 | 0.00 | 0.00 | 51 | |
| 20260507062721 | 64 | 163 | 0.0 | 0.0 | 0.00 | 0.00 | 0.00 | 50 | |
| 20260507062121 | 63 | 163 | 0.0 | 0.0 | 0.00 | 0.00 | 0.00 | 51 | |
| 20260507061521 | 63 | 163 | 0.0 | 0.0 | 0.00 | 0.00 | 0.00 | 50 | |
| 20260507060921 | 63 | 163 | 0.0 | 0.0 | 0.00 | 0.00 | 0.00 | 51 | |
| 20260507060321 | 63 | 163 | 0.0 | 0.0 | 0.00 | 0.00 | 0.00 | 54 | |
| 20260507055721 | 63 | 163 | 0.0 | 0.0 | 0.00 | 0.00 | 0.00 | 51 | |
| 20260507055121 | 63 | 163 | 0.0 | 0.0 | 0.00 | 0.00 | 0.00 | 48 | |
| 20260507054922 | 63 | 163 | 0.0 | 0.0 | 0.00 | 0.00 | 0.00 | 48 | |
| 20260507054521 | 63 | 163 | 0.0 | 0.0 | 0.00 | 0.00 | 0.00 | 50 | |
| 20260507053921 | 62 | 163 | 0.0 | 0.0 | 0.00 | 0.00 | 0.00 | 53 | |
| 20260507053321 | 61 | 163 | 0.0 | 1.0 | 0.00 | 0.00 | 0.00 | 56 | |
| 20260507052922 | 61 | 163 | 0.0 | 0.0 | 0.00 | 0.00 | 0.00 | 60 | |
| 20260507052721 | 61 | 163 | 0.0 | 0.0 | 0.00 | 0.00 | 0.00 | 60 | |
| 20260507052121 | 60 | 163 | 0.0 | 0.0 | 0.00 | 0.00 | 0.00 | 60 | |
| 20260507051521 | 60 | 163 | 0.0 | 0.0 | 0.00 | 0.00 | 0.00 | 60 | |
| 20260507050921 | 60 | 163 | 0.0 | 0.0 | 0.00 | 0.00 | 0.00 | 60 | |
| 20260507050321 | 59 | 163 | 0.0 | 0.0 | 0.00 | 0.00 | 0.00 | 59 | |
| 20260507045721 | 59 | 163 | 0.0 | 0.0 | 0.00 | 0.00 | 0.00 | 58 | |
| 20260507045121 | 58 | 163 | 0.0 | 0.0 | 0.00 | 0.00 | 0.00 | 59 | |
| 20260507044922 | 58 | 163 | 0.0 | 0.0 | 0.00 | 0.00 | 0.00 | 58 | |
| 20260507044521 | 58 | 163 | 0.0 | 0.0 | 0.00 | 0.00 | 0.00 | 58 | |
| 20260507043921 | 58 | 163 | 0.0 | 0.0 | 0.00 | 0.00 | 0.00 | 58 | |
| 20260507043321 | 58 | 163 | 0.0 | 0.0 | 0.00 | 0.00 | 0.00 | 57 | |
| 20260507042721 | 57 | 163 | 0.0 | 0.0 | 0.00 | 0.00 | 0.00 | 57 | |
| 20260507042121 | 57 | 163 | 0.0 | 0.0 | 0.00 | 0.00 | 0.00 | 56 | |
| 20260507041521 | 57 | 163 | 0.0 | 0.0 | 0.00 | 0.00 | 0.00 | 56 | |
| 20260507040921 | 57 | 163 | 0.0 | 0.0 | 0.00 | 0.00 | 0.00 | 56 | |
| 20260507040321 | 57 | 163 | 0.0 | 0.0 | 0.00 | 0.00 | 0.00 | 55 | |
| 20260507035721 | 57 | 163 | 0.0 | 0.0 | 0.00 | 0.00 | 0.00 | 55 | |
| 20260507035121 | 57 | 163 | 0.0 | 0.0 | 0.00 | 0.00 | 0.00 | 55 | |
| 20260507034922 | 57 | 163 | 0.0 | 0.0 | 0.00 | 0.00 | 0.00 | 55 | |
| 20260507034521 | 57 | 163 | 0.0 | 0.0 | 0.00 | 0.00 | 0.00 | 55 | |
| 20260507033921 | 57 | 163 | 0.0 | 0.0 | 0.00 | 0.00 | 0.00 | 55 | |
| 20260507033322 | 57 | 163 | 0.0 | 0.0 | 0.00 | 0.00 | 0.00 | 54 | |
| 20260507032722 | 56 | 163 | 0.0 | 0.0 | 0.00 | 0.00 | 0.00 | 55 | |
| 20260507032122 | 56 | 163 | 0.0 | 0.0 | 0.00 | 0.00 | 0.00 | 55 | |
| 20260507031522 | 57 | 163 | 0.0 | 0.0 | 0.00 | 0.00 | 0.00 | 56 | |
| 20260507030922 | 57 | 163 | 0.0 | 0.0 | 0.00 | 0.00 | 0.00 | 55 | |
| 20260507030322 | 57 | 163 | 0.0 | 0.0 | 0.00 | 0.00 | 0.00 | 55 | |
| 20260507025722 | 57 | 163 | 0.0 | 0.0 | 0.00 | 0.00 | 0.00 | 54 | |
| 20260507025122 | 58 | 163 | 0.0 | 0.0 | 0.00 | 0.00 | 0.00 | 54 | |
| 20260507024923 | 58 | 163 | 0.0 | 0.0 | 0.00 | 0.00 | 0.00 | 54 | |
| 20260507024522 | 58 | 163 | 0.0 | 0.0 | 0.00 | 0.00 | 0.00 | 53 | |
| 20260507023922 | 58 | 163 | 0.0 | 0.0 | 0.00 | 0.00 | 0.00 | 52 | |
| 20260507023322 | 58 | 163 | 0.0 | 0.0 | 0.00 | 0.00 | 0.00 | 51 | |
| 20260507022923 | 58 | 163 | 0.0 | 0.0 | 0.00 | 0.00 | 0.00 | 52 | |
| 20260507022722 | 58 | 163 | 0.0 | 0.0 | 0.00 | 0.00 | 0.00 | 52 | |
| 20260507022122 | 58 | 163 | 0.0 | 5.0 | 0.00 | 0.00 | 0.00 | 53 | |
| 20260507021522 | 58 | 115 | 0.0 | 0.0 | 0.00 | 0.00 | 0.00 | 53 | |
| 20260507020922 | 58 | 115 | 0.0 | 3.0 | 0.00 | 0.00 | 0.00 | 53 | |
| 20260507020322 | 59 | 70 | 0.0 | 0.0 | 0.00 | 0.00 | 0.00 | 53 | |
| 20260507015722 | 58 | 70 | 0.0 | 0.0 | 0.00 | 0.00 | 0.00 | 52 | |
| 20260507015122 | 58 | 70 | 0.0 | 7.0 | 0.00 | 0.00 | 0.00 | 50 | |
| 20260507014923 | 58 | 70 | 0.0 | 7.0 | 0.00 | 0.00 | 0.00 | 50 | |
| 20260507014522 | 58 | 125 | 0.0 | 3.0 | 0.00 | 0.00 | 0.00 | 52 | |
| 20260507013922 | 58 | 120 | 0.0 | 0.0 | 0.00 | 0.00 | 0.00 | 55 | |
| 20260507013322 | 58 | 120 | 0.0 | 0.0 | 0.00 | 0.00 | 0.00 | 56 | |
| 20260507012923 | 58 | 120 | 0.0 | 0.0 | 0.00 | 0.00 | 0.00 | 56 | |
| 20260507012722 | 58 | 120 | 0.0 | 0.0 | 0.00 | 0.00 | 0.00 | 56 | |
| 20260507012122 | 58 | 120 | 0.0 | 0.0 | 0.00 | 0.00 | 0.00 | 56 | |
| 20260507011522 | 58 | 120 | 0.0 | 0.0 | 0.00 | 0.00 | 0.00 | 56 | |
| 20260507010922 | 58 | 120 | 0.0 | 0.0 | 0.00 | 0.00 | 0.00 | 55 | |
| 20260507010322 | 58 | 120 | 0.0 | 0.0 | 0.00 | 0.00 | 0.00 | 55 | |
| 20260507005722 | 58 | 120 | 0.0 | 3.0 | 0.00 | 0.00 | 0.00 | 55 | |
| 20260507005122 | 58 | 111 | 0.0 | 0.0 | 0.00 | 0.00 | 0.00 | 57 | |
| 20260507004923 | 58 | 111 | 0.0 | 0.0 | 0.00 | 0.00 | 0.00 | 57 | |
| 20260507004522 | 58 | 111 | 0.0 | 0.0 | 0.00 | 0.00 | 0.00 | 56 | |
| 20260507003922 | 59 | 111 | 0.0 | 0.0 | 0.00 | 0.00 | 0.00 | 57 | |
| 20260507003322 | 59 | 111 | 0.0 | 0.0 | 0.00 | 0.00 | 0.00 | 56 | |
| 20260507002722 | 59 | 111 | 0.0 | 4.0 | 0.00 | 0.00 | 0.00 | 55 | |
| 20260507002122 | 59 | 120 | 0.0 | 0.0 | 0.00 | 0.00 | 0.00 | 55 | |
| 20260507001522 | 59 | 120 | 0.0 | 5.0 | 0.00 | 0.00 | 0.00 | 55 | |
| 20260507000922 | 59 | 102 | 0.0 | 0.0 | 0.00 | 0.00 | 0.00 | 55 | |
| 20260507000322 | 60 | 102 | 0.0 | 0.0 | 0.00 | 0.00 | 0.00 | 53 | |
| 20260506235722 | 60 | 102 | 0.0 | 0.0 | 0.00 | 0.00 | 0.00 | 53 | |
| 20260506235122 | 60 | 102 | 0.0 | 0.0 | 0.00 | 0.00 | 0.00 | 53 | |
| 20260506234923 | 60 | 102 | 0.0 | 0.0 | 0.00 | 0.00 | 0.00 | 53 | |
| 20260506234522 | 60 | 102 | 0.0 | 0.0 | 0.00 | 0.00 | 0.00 | 53 | |
| 20260506233922 | 61 | 102 | 0.0 | 0.0 | 0.00 | 0.00 | 0.00 | 52 | |
| 20260506233322 | 61 | 102 | 0.0 | 0.0 | 0.00 | 0.00 | 0.00 | 51 | |
| 20260506232923 | 61 | 102 | 0.0 | 3.0 | 0.00 | 0.00 | 0.00 | 50 | |
| 20260506232722 | 61 | 102 | 0.0 | 3.0 | 0.00 | 0.00 | 0.00 | 50 | |
| 20260506232122 | 61 | 102 | 4.0 | 5.0 | 0.00 | 0.00 | 0.00 | 50 | |
| 20260506231522 | 61 | 137 | 0.0 | 4.0 | 0.00 | 0.00 | 0.00 | 50 | |
| 20260506230922 | 60 | 136 | 0.0 | 0.0 | 0.00 | 0.00 | 0.00 | 50 | |
| 20260506230322 | 60 | 136 | 2.0 | 5.0 | 0.00 | 0.00 | 0.00 | 53 | |
| 20260506225722 | 59 | 161 | 0.0 | 4.0 | 0.00 | 0.00 | 0.00 | 54 | |
| 20260506225122 | 59 | 293 | 0.0 | 0.0 | 0.00 | 0.00 | 0.00 | 54 | |
| 20260506224923 | 59 | 293 | 0.0 | 0.0 | 0.00 | 0.00 | 0.00 | 56 | |
| 20260506224522 | 59 | 293 | 0.0 | 0.0 | 0.00 | 0.00 | 0.00 | 56 | |
| 20260506223922 | 60 | 293 | 0.0 | 0.0 | 0.00 | 0.00 | 0.00 | 56 | |
| 20260506223322 | 60 | 293 | 0.0 | 0.0 | 0.00 | 0.00 | 0.00 | 55 | |
| 20260506222923 | 60 | 293 | 0.0 | 0.0 | 0.00 | 0.00 | 0.00 | 55 | |
| 20260506222722 | 60 | 293 | 0.0 | 0.0 | 0.00 | 0.00 | 0.00 | 55 | |
| 20260506222122 | 61 | 293 | 0.0 | 0.0 | 0.00 | 0.00 | 0.00 | 54 | |
| 20260506221522 | 61 | 293 | 0.0 | 0.0 | 0.00 | 0.00 | 0.00 | 53 | |
| 20260506220922 | 61 | 293 | 0.0 | 0.0 | 0.00 | 0.00 | 0.00 | 53 | |
| 20260506220322 | 61 | 293 | 0.0 | 0.0 | 0.00 | 0.00 | 0.00 | 52 | |
| 20260506215722 | 61 | 293 | 0.0 | 0.0 | 0.00 | 0.00 | 0.00 | 50 | |
| 20260506215122 | 61 | 293 | 0.0 | 0.0 | 0.00 | 0.00 | 0.00 | 50 | |
| 20260506214923 | 61 | 293 | 0.0 | 0.0 | 0.00 | 0.00 | 0.00 | 49 | |
| 20260506214522 | 61 | 293 | 0.0 | 0.0 | 0.00 | 0.00 | 0.00 | 49 | |
| 20260506213922 | 61 | 293 | 0.0 | 0.0 | 0.00 | 0.00 | 0.00 | 53 | |
| 20260506213322 | 61 | 293 | 0.0 | 0.0 | 0.00 | 0.00 | 0.00 | 53 | |
| 20260506212722 | 61 | 293 | 0.0 | 0.0 | 0.00 | 0.00 | 0.00 | 53 | |
| 20260506212122 | 61 | 293 | 0.0 | 0.0 | 0.00 | 0.00 | 0.00 | 52 | |
| 20260506211522 | 61 | 293 | 0.0 | 0.0 | 0.00 | 0.00 | 0.00 | 52 | |
| 20260506210922 | 61 | 293 | 0.0 | 0.0 | 0.00 | 0.00 | 0.00 | 51 | |
| 20260506210322 | 62 | 293 | 0.0 | 0.0 | 0.00 | 0.00 | 0.00 | 51 | |
| 20260506205722 | 62 | 293 | 0.0 | 0.0 | 0.00 | 0.00 | 0.00 | 51 | |
| 20260506205122 | 62 | 293 | 0.0 | 0.0 | 0.00 | 0.00 | 0.00 | 50 | |
| 20260506204923 | 62 | 293 | 0.0 | 0.0 | 0.00 | 0.00 | 0.00 | 50 | |
| 20260506204522 | 62 | 293 | 0.0 | 0.0 | 0.00 | 0.00 | 0.00 | 50 | |
| 20260506203922 | 62 | 293 | 0.0 | 0.0 | 0.00 | 0.00 | 0.00 | 50 | |
| 20260506203322 | 62 | 293 | 0.0 | 0.0 | 0.00 | 0.00 | 0.00 | 49 | |
| 20260506202923 | 62 | 293 | 0.0 | 0.0 | 0.00 | 0.00 | 0.00 | 50 | |
| 20260506202722 | 63 | 293 | 0.0 | 0.0 | 0.00 | 0.00 | 0.00 | 49 | |
| 20260506202122 | 63 | 293 | 0.0 | 0.0 | 0.00 | 0.00 | 0.00 | 49 | |
| 20260506201522 | 63 | 293 | 0.0 | 0.0 | 0.00 | 0.00 | 0.00 | 48 | |
| 20260506200922 | 63 | 293 | 0.0 | 5.0 | 0.00 | 0.00 | 0.00 | 48 | |
| 20260506200322 | 63 | 57 | 0.0 | 0.0 | 0.00 | 0.00 | 0.00 | 45 | |
| 20260506195722 | 63 | 57 | 0.0 | 4.0 | 0.00 | 0.00 | 0.00 | 50 | |
| 20260506195122 | 63 | 70 | 0.0 | 0.0 | 0.00 | 0.00 | 0.00 | 50 | |
| 20260506194923 | 63 | 70 | 0.0 | 0.0 | 0.00 | 0.00 | 0.00 | 50 | |
| 20260506194522 | 64 | 70 | 0.0 | 0.0 | 0.00 | 0.00 | 0.00 | 50 | |
| 20260506193922 | 64 | 70 | 0.0 | 0.0 | 0.00 | 0.00 | 0.00 | 49 | |
| 20260506193322 | 64 | 70 | 0.0 | 0.0 | 0.00 | 0.00 | 0.00 | 49 | |
| 20260506192923 | 65 | 70 | 0.0 | 0.0 | 0.00 | 0.00 | 0.00 | 49 | |
| 20260506192722 | 65 | 70 | 0.0 | 0.0 | 0.00 | 0.00 | 0.00 | 48 | |
| 20260506192122 | 65 | 70 | 0.0 | 0.0 | 0.00 | 0.00 | 0.00 | 47 | |
| 20260506191522 | 66 | 70 | 0.0 | 0.0 | 0.00 | 0.00 | 0.00 | 46 | |
| 20260506190922 | 66 | 70 | 0.0 | 3.0 | 0.00 | 0.00 | 0.00 | 45 | |
| 20260506190322 | 66 | 168 | 0.0 | 4.0 | 0.00 | 0.00 | 0.00 | 44 | |
| 20260506185722 | 66 | 77 | 0.0 | 0.0 | 0.00 | 0.00 | 0.00 | 44 | |
| 20260506185122 | 66 | 77 | 0.0 | 0.0 | 0.00 | 0.00 | 0.00 | 43 | |
| 20260506184522 | 66 | 77 | 0.0 | 5.0 | 0.00 | 0.00 | 0.00 | 44 | |
| 20260506183922 | 66 | 140 | 0.0 | 4.0 | 0.00 | 0.00 | 0.00 | 43 | |
| 20260506183322 | 66 | 42 | 0.0 | 5.0 | 0.00 | 0.00 | 0.00 | 42 | |
| 20260506182722 | 67 | 92 | 0.0 | 5.0 | 0.00 | 0.00 | 0.00 | 41 | |
| 20260506182122 | 67 | 126 | 0.0 | 4.0 | 0.00 | 0.00 | 0.00 | 41 | |
| 20260506181522 | 67 | 133 | 0.0 | 0.0 | 0.00 | 0.00 | 0.00 | 42 | |
| 20260506180922 | 67 | 133 | 0.0 | 3.0 | 0.00 | 0.00 | 0.00 | 42 | |
| 20260506180322 | 67 | 88 | 0.0 | 4.0 | 0.00 | 0.00 | 0.00 | 40 | |
| 20260506175722 | 68 | 97 | 0.0 | 6.0 | 0.00 | 0.00 | 0.00 | 40 | |
| 20260506175122 | 68 | 49 | 0.0 | 6.0 | 0.00 | 0.00 | 0.00 | 40 | |
| 20260506174923 | 68 | 49 | 3.0 | 6.0 | 0.00 | 0.00 | 0.00 | 39 | |
| 20260506174522 | 68 | 175 | 0.0 | 5.0 | 0.00 | 0.00 | 0.00 | 39 | |
| 20260506173922 | 69 | 102 | 0.0 | 4.0 | 0.00 | 0.00 | 0.00 | 40 | |
| 20260506173322 | 69 | 132 | 0.0 | 0.0 | 0.00 | 0.00 | 0.00 | 41 | |
| 20260506172722 | 69 | 132 | 0.0 | 9.0 | 0.00 | 0.00 | 0.00 | 39 | |
| 20260506172123 | 70 | 130 | 0.0 | 3.0 | 0.00 | 0.00 | 0.00 | 38 | |
| 20260506171522 | 70 | 147 | 0.0 | 4.0 | 0.00 | 0.00 | 0.00 | 38 | |
| 20260506170922 | 70 | 115 | 0.0 | 0.0 | 0.00 | 0.00 | 0.00 | 40 | |
| 20260506170322 | 71 | 115 | 0.0 | 0.0 | 0.00 | 0.00 | 0.00 | 36 | |
| 20260506165722 | 71 | 115 | 0.0 | 5.0 | 0.00 | 0.00 | 0.00 | 36 | |
| 20260506165123 | 72 | 125 | 0.0 | 0.0 | 0.00 | 0.00 | 0.00 | 35 | |
| 20260506164522 | 73 | 125 | 2.0 | 5.0 | 0.00 | 0.00 | 0.00 | 34 | |
| 20260506163923 | 74 | 106 | 0.0 | 6.0 | 0.00 | 0.00 | 0.00 | 35 | |
| 20260506163322 | 75 | 23 | 0.0 | 0.0 | 0.00 | 0.00 | 0.00 | 34 | |
| 20260506162924 | 76 | 23 | 0.0 | 0.0 | 0.00 | 0.00 | 0.00 | 36 | |
| 20260506162723 | 76 | 23 | 0.0 | 0.0 | 0.00 | 0.00 | 0.00 | 38 | |
| 20260506162122 | 76 | 23 | 0.0 | 0.0 | 0.00 | 0.00 | 0.00 | 40 | |
| 20260506161523 | 77 | 23 | 0.0 | 0.0 | 0.00 | 0.00 | 0.00 | 39 | |
| 20260506160923 | 78 | 23 | 0.0 | 0.0 | 0.00 | 0.00 | 0.00 | 40 | |
| 20260506160323 | 78 | 23 | 0.0 | 0.0 | 0.00 | 0.00 | 0.00 | 35 | |
| 20260506155723 | 77 | 23 | 0.0 | 0.0 | 0.00 | 0.00 | 0.00 | 38 | |
| 20260506155123 | 76 | 23 | 0.0 | 0.0 | 0.00 | 0.00 | 0.00 | 41 | |
| 20260506154924 | 76 | 23 | 0.0 | 0.0 | 0.00 | 0.00 | 0.00 | 44 | |
| 20260506154523 | 75 | 23 | 0.0 | 0.0 | 0.00 | 0.00 | 0.00 | 46 | |
| 20260506153923 | 74 | 23 | 0.0 | 0.0 | 0.00 | 0.00 | 0.00 | 46 | |
| 20260506153323 | 74 | 23 | 0.0 | 0.0 | 0.00 | 0.00 | 0.00 | 47 | |
| 20260506152924 | 74 | 23 | 0.0 | 0.0 | 0.00 | 0.00 | 0.00 | 47 | |
| 20260506152723 | 74 | 23 | 0.0 | 0.0 | 0.00 | 0.00 | 0.00 | 47 | |
| 20260506152123 | 74 | 23 | 0.0 | 0.0 | 0.00 | 0.00 | 0.00 | 48 | |
| 20260506151523 | 74 | 23 | 0.0 | 0.0 | 0.00 | 0.00 | 0.00 | 47 | |
| 20260506150923 | 74 | 23 | 0.0 | 0.0 | 0.00 | 0.00 | 0.00 | 44 |